Location: Erba
(45.8000°N, 9.2500°E)
Time: 12:11:53
(UTC+02:00)

ISS - Pass Details

Date: 03 July 2020
Orbit: 417 x 420 km, 51.6° (Epoch: 02 July)

Event Time Altitude Azimuth Distance (km) Brightness Sun altitude
Exits shadow 02:36:24 13° 111° (ESE) 1,318 -1.3 -19.5°
Drops below altitude 10° 02:37:15 10° 97° (E) 1,493 -0.9 -19.5°
Sets 02:39:59 0° 73° (ENE) 2,360 0.5 -19.3°
